Weather History for KMZG - December, 2013

Change the Weather History Date:

Tuesday, December 31, 2013

  Actual Average Record
Temperature  
Mean Temperature 56 °F -  
Max Temperature 62 °F - - ()
Min Temperature 51 °F - - ()
Degree Days  
Heating Degree Days 8    
Growing Degree Days 6 (Base 50)    
Moisture  
Dew Point 49 °F    
Average Humidity 80    
Maximum Humidity 88    
Minimum Humidity 68    
Precipitation  
Precipitation 0.04 in - - ()
Sea Level Pressure  
Sea Level Pressure 30.33 in    
Wind  
Wind Speed 16 mph (NNE)    
Max Wind Speed 22 mph    
Max Gust Speed 26 mph    
Visibility 8 miles    
Events      
T = Trace of Precipitation, MM = Missing Value Source: NWS Daily Summary

Daily Weather History Graph

Daily Weather History Graph

Search for Another Location

Airport or City:

Trip Planner

Search our weather history database for the weather conditions in past years. The results will help you decide how hot, cold, wet, or windy it might be!

Date:

Astronomy

Dec. 31, 2013 Rise Set
Actual Time 7:15 AM CST 5:40 PM CST
Civil Twilight 6:49 AM CST 6:06 PM CST
Nautical Twilight 6:20 AM CST 6:35 PM CST
Astronomical Twilight 5:52 AM CST 7:03 PM CST
Moon 6:12 AM CST (12/31) 5:13 PM CST (12/31)
Length of Visible Light 11h 16m
Length of Day
10h 25m
Waning Crescent, 1% of the Moon is Illuminated
Dec 31
Waning Crescent
Jan 1
New
Jan 7
First Quarter
Jan 15
Full
Jan 23
Last Quarter

Hourly Weather History & Observations

Time (CST) Temp. Dew Point Humidity Pressure Visibility Wind Dir Wind Speed Gust Speed Precip Events Conditions
12:15 AM 53.6 °F 46.4 °F 77% 30.34 in 10.0 mi NNE 17.3 mph 24.2 mph N/A   Overcast
12:35 AM 53.6 °F 48.2 °F 82% 30.34 in 10.0 mi North 17.3 mph - N/A   Overcast
12:55 AM 53.6 °F 46.4 °F 77% 30.33 in - North 20.7 mph - N/A   Mostly Cloudy
1:15 AM 53.6 °F 48.2 °F 82% 30.33 in 9.0 mi North 18.4 mph - N/A   Mostly Cloudy
1:35 AM 53.6 °F 48.2 °F 82% 30.34 in 7.0 mi North 19.6 mph - N/A   Mostly Cloudy
1:55 AM 51.8 °F 48.2 °F 88% 30.33 in 7.0 mi North 19.6 mph - N/A   Mostly Cloudy
2:15 AM 51.8 °F 46.4 °F 82% 30.33 in 9.0 mi North 20.7 mph - N/A   Mostly Cloudy
2:35 AM 55.4 °F 48.2 °F 77% 30.33 in 10.0 mi NNE 15.0 mph 20.7 mph N/A   Mostly Cloudy
2:55 AM 53.6 °F 48.2 °F 82% 30.32 in 9.0 mi NNE 17.3 mph - N/A   Overcast
3:15 AM 53.6 °F 48.2 °F 82% 30.33 in 10.0 mi North 17.3 mph - N/A   Overcast
3:35 AM 53.6 °F 48.2 °F 82% 30.34 in 8.0 mi North 21.9 mph - N/A   Mostly Cloudy
3:55 AM 51.8 °F 46.4 °F 82% 30.34 in 10.0 mi North 20.7 mph - N/A   Mostly Cloudy
4:15 AM 51.8 °F 46.4 °F 82% 30.34 in 10.0 mi NNE 16.1 mph 24.2 mph N/A   Overcast
4:35 AM 53.6 °F 46.4 °F 77% 30.34 in 9.0 mi NNE 17.3 mph - N/A   Overcast
4:55 AM 51.8 °F 46.4 °F 82% 30.34 in 8.0 mi North 17.3 mph - N/A   Mostly Cloudy
5:15 AM 51.8 °F 46.4 °F 82% 30.34 in 9.0 mi NNE 17.3 mph 23.0 mph N/A   Mostly Cloudy
5:35 AM 53.6 °F 48.2 °F 82% 30.33 in 10.0 mi NE 11.5 mph 23.0 mph N/A   Overcast
5:55 AM 51.8 °F 46.4 °F 82% 30.33 in 10.0 mi NNE 18.4 mph 24.2 mph N/A   Overcast
6:15 AM 53.6 °F 48.2 °F 82% 30.33 in 10.0 mi North 20.7 mph - N/A   Overcast
6:35 AM 51.8 °F 46.4 °F 82% 30.34 in 10.0 mi NNE 19.6 mph 26.5 mph N/A   Overcast
6:55 AM 53.6 °F 48.2 °F 82% 30.35 in 10.0 mi NE 16.1 mph 26.5 mph N/A   Overcast
7:15 AM 53.6 °F 48.2 °F 82% 30.36 in 10.0 mi NNE 17.3 mph - N/A   Overcast
7:35 AM 55.4 °F 48.2 °F 77% 30.35 in 9.0 mi NNE 16.1 mph 21.9 mph N/A   Overcast
7:55 AM 53.6 °F 48.2 °F 82% 30.36 in 9.0 mi NNE 17.3 mph - N/A   Overcast
8:15 AM 53.6 °F 48.2 °F 82% 30.38 in 10.0 mi NNE 13.8 mph - N/A   Overcast
8:35 AM 55.4 °F 48.2 °F 77% 30.39 in 10.0 mi North 15.0 mph - N/A   Overcast
8:55 AM 55.4 °F 48.2 °F 77% 30.38 in 10.0 mi North 18.4 mph 24.2 mph N/A   Overcast
9:15 AM 55.4 °F 48.2 °F 77% 30.39 in 10.0 mi NNE 10.4 mph 18.4 mph N/A   Overcast
9:35 AM 55.4 °F 48.2 °F 77% 30.39 in 10.0 mi NE 9.2 mph 16.1 mph N/A   Mostly Cloudy
9:55 AM 57.2 °F 48.2 °F 72% 30.39 in 10.0 mi NNE 12.7 mph - N/A   Mostly Cloudy
10:15 AM 57.2 °F 50.0 °F 77% 30.39 in 10.0 mi NNE 12.7 mph - N/A   Mostly Cloudy
10:35 AM 59.0 °F 50.0 °F 72% 30.38 in 10.0 mi NE 9.2 mph 17.3 mph N/A   Mostly Cloudy
10:55 AM 57.2 °F 50.0 °F 77% 30.38 in 10.0 mi NNE 11.5 mph 17.3 mph N/A   Overcast
11:15 AM 57.2 °F 50.0 °F 77% 30.38 in 10.0 mi NNE 13.8 mph - N/A   Overcast
11:35 AM 55.4 °F 50.0 °F 82% 30.37 in 9.0 mi North 17.3 mph - N/A   Overcast
11:55 AM 55.4 °F 50.0 °F 82% 30.36 in 9.0 mi North 15.0 mph - N/A   Overcast
12:15 PM 55.4 °F 50.0 °F 82% 30.36 in 9.0 mi North 17.3 mph - N/A   Overcast
12:35 PM 55.4 °F 50.0 °F 82% 30.34 in 9.0 mi North 16.1 mph - N/A   Overcast
12:55 PM 55.4 °F 50.0 °F 82% 30.33 in 9.0 mi North 18.4 mph - N/A   Overcast
1:15 PM 53.6 °F 50.0 °F 88% 30.32 in 9.0 mi North 18.4 mph - N/A   Overcast
1:35 PM 53.6 °F 50.0 °F 88% 30.31 in 7.0 mi North 16.1 mph - N/A   Mostly Cloudy
1:55 PM 53.6 °F 50.0 °F 88% 30.31 in 4.0 mi North 16.1 mph - N/A   Mostly Cloudy
2:15 PM 53.6 °F 50.0 °F 88% 30.31 in - North 15.0 mph - N/A   Mostly Cloudy
2:35 PM 53.6 °F 50.0 °F 88% 30.31 in 6.0 mi NNW 17.3 mph 24.2 mph N/A   Mostly Cloudy
2:55 PM 53.6 °F 50.0 °F 88% 30.31 in 4.0 mi NNW 18.4 mph - N/A   Mostly Cloudy
3:15 PM 53.6 °F 50.0 °F 88% 30.31 in 4.0 mi North 13.8 mph - N/A   Mostly Cloudy
3:35 PM 53.6 °F 50.0 °F 88% 30.31 in 5.0 mi North 16.1 mph 24.2 mph N/A   Mostly Cloudy
3:55 PM 53.6 °F 50.0 °F 88% 30.31 in 5.0 mi North 15.0 mph - 0.02 in   Scattered Clouds
4:15 PM 53.6 °F 50.0 °F 88% 30.31 in 4.0 mi North 15.0 mph - N/A   Partly Cloudy
4:35 PM 53.6 °F 50.0 °F 88% 30.31 in 4.0 mi NNW 19.6 mph - N/A   Partly Cloudy
4:55 PM 53.6 °F 50.0 °F 88% 30.30 in 5.0 mi NNW 18.4 mph - 0.02 in   Scattered Clouds
5:15 PM 51.8 °F 48.2 °F 88% 30.31 in 6.0 mi North 13.8 mph 20.7 mph N/A   Haze
5:35 PM 53.6 °F 48.2 °F 82% 30.31 in 6.0 mi NNW 15.0 mph 20.7 mph N/A   Haze
5:55 PM 53.6 °F 48.2 °F 82% 30.29 in 6.0 mi North 16.1 mph - N/A   Haze
6:15 PM 53.6 °F 48.2 °F 82% 30.29 in 6.0 mi NNW 18.4 mph - N/A   Haze
6:35 PM 53.6 °F 48.2 °F 82% 30.30 in 8.0 mi North 17.3 mph - N/A   Overcast
6:55 PM 53.6 °F 48.2 °F 82% 30.30 in 9.0 mi North 16.1 mph - N/A   Overcast
7:15 PM 53.6 °F 48.2 °F 82% 30.30 in 10.0 mi NNE 17.3 mph - N/A   Mostly Cloudy
7:35 PM 55.4 °F 48.2 °F 77% 30.31 in 10.0 mi NNE 16.1 mph - N/A   Mostly Cloudy
7:55 PM 57.2 °F 50.0 °F 77% 30.30 in 10.0 mi NE 10.4 mph 18.4 mph N/A   Overcast
8:15 PM 57.2 °F 50.0 °F 77% 30.29 in 10.0 mi NE 12.7 mph 19.6 mph N/A   Mostly Cloudy
8:35 PM 57.2 °F 50.0 °F 77% 30.30 in 10.0 mi NE 10.4 mph 18.4 mph N/A   Mostly Cloudy
8:55 PM 59.0 °F 50.0 °F 72% 30.29 in 9.0 mi NE 10.4 mph 17.3 mph N/A   Overcast
9:15 PM 59.0 °F 51.8 °F 77% 30.29 in 9.0 mi NE 10.4 mph - N/A   Overcast
9:35 PM 60.8 °F 51.8 °F 72% 30.29 in 9.0 mi ENE 8.1 mph 16.1 mph N/A   Overcast
9:55 PM 60.8 °F 51.8 °F 72% 30.28 in 8.0 mi Variable 6.9 mph 13.8 mph N/A   Overcast
10:15 PM 59.0 °F 50.0 °F 72% 30.29 in 9.0 mi Variable 6.9 mph - N/A   Overcast
10:35 PM 59.0 °F 51.8 °F 77% 30.28 in 10.0 mi Variable 6.9 mph 12.7 mph N/A   Overcast
10:55 PM 62.6 °F 51.8 °F 68% 30.27 in 8.0 mi Variable 5.8 mph 13.8 mph N/A   Overcast
11:15 PM 62.6 °F 51.8 °F 68% 30.27 in 8.0 mi Variable 6.9 mph - N/A   Overcast
11:35 PM 60.8 °F 51.8 °F 72% 30.26 in 9.0 mi East 8.1 mph - N/A   Mostly Cloudy
11:55 PM 62.6 °F 53.6 °F 72% 30.25 in 8.0 mi East 6.9 mph - N/A   Mostly Cloudy